Date String (YYYY-MM-DD hh:mm:ss) UTC,Instrument flags,Ambient pressure (hPa),Sample flow (lpm),Bypass flow (lpm),Sample temperature (°C),Ambient temperature (°C),ASC tube jacket temperature (°C),LED temperature (°C),Box temperature (°C),Sample RH (%),Span deviation,Mass concentration (μg/m³),Mass concentration (μg/m³),Mass concentration (μg/m³)
DateTimeUTC,F1_M11,P_M11,Q1_M11,Q2_M11,T1_M11,T2_M11,T3_M11,T4_M11,T5_M11,U1_M11,ZSPAN_M11,X0_M11,X2_M11,X1_M11
2023-01-21 06:00:00,,0826.2,5.02,0.00,22.4,21.4,00.0,31.1,24.1,08.9,0000.0,0008.78,0005.78,0005.40
2023-01-21 06:01:00,,0826.2,5.01,0.00,22.4,21.2,00.0,31.1,24.1,08.9,0000.0,0008.80,0005.81,0005.44
2023-01-21 06:02:00,,0826.2,4.99,0.00,22.3,20.9,00.0,31.1,24.0,08.8,0000.0,0008.94,0005.87,0005.46
2023-01-21 06:03:00,,0826.2,4.99,0.00,22.3,20.8,00.0,31.1,24.0,08.7,0000.0,0008.95,0005.89,0005.49
2023-01-21 06:04:00,,0826.2,5.00,0.00,22.3,20.6,00.0,31.1,23.9,08.7,0000.0,0008.86,0005.88,0005.52
2023-01-21 06:05:00,,0826.2,5.00,0.00,22.2,20.5,00.0,31.1,23.8,08.7,0000.0,0008.96,0005.89,0005.53
2023-01-21 06:06:00,,0826.2,5.00,0.00,22.2,20.4,00.0,31.1,23.8,08.6,0000.0,0009.03,0005.92,0005.56
2023-01-21 06:07:00,,0826.1,5.00,0.00,22.1,20.4,00.0,31.0,23.7,08.6,0000.0,0009.05,0005.94,0005.59
2023-01-21 06:08:00,,0826.1,4.99,0.00,22.1,20.4,00.0,31.0,23.7,08.6,0000.0,0008.92,0005.98,0005.64
2023-01-21 06:09:00,,0826.2,5.01,0.00,22.1,21.1,00.0,31.0,23.8,08.6,0000.0,0008.91,0006.06,0005.71
2023-01-21 06:10:00,,0826.2,5.00,0.00,22.2,22.1,00.0,31.0,24.1,08.6,0000.0,0008.95,0006.13,0005.77
2023-01-21 06:11:00,,0826.2,5.00,0.00,22.3,22.8,00.0,31.0,24.3,08.5,0000.0,0008.99,0006.19,0005.85
2023-01-21 06:12:00,,0826.2,4.98,0.00,22.4,22.4,00.0,31.0,24.3,08.5,0000.0,0009.06,0006.30,0005.97
2023-01-21 06:13:00,,0826.2,5.02,0.00,22.4,21.9,00.0,31.1,24.2,08.6,0000.0,0009.08,0006.39,0006.09
2023-01-21 06:14:00,,0826.1,5.01,0.00,22.4,21.5,00.0,31.1,24.1,08.6,0000.0,0009.19,0006.50,0006.19
2023-01-21 06:15:00,,0826.1,5.00,0.00,22.3,21.3,00.0,31.1,24.0,08.6,0000.0,0009.40,0006.64,0006.31
2023-01-21 06:16:00,,0826.1,5.00,0.00,22.3,21.0,00.0,31.1,24.0,08.6,0000.0,0009.47,0006.77,0006.43
2023-01-21 06:17:00,,0826.2,4.99,0.00,22.3,20.9,00.0,31.1,23.9,08.6,0000.0,0009.56,0006.87,0006.54
2023-01-21 06:18:00,,0826.2,5.02,0.00,22.2,20.7,00.0,31.1,23.8,08.7,0000.0,0009.81,0006.99,0006.62
2023-01-21 06:19:00,,0826.2,5.00,0.00,22.2,20.5,00.0,31.1,23.7,08.7,0000.0,0010.00,0007.12,0006.71
2023-01-21 06:20:00,,0826.2,4.99,0.00,22.1,20.5,00.0,31.0,23.7,08.7,0000.0,0010.08,0007.18,0006.78
2023-01-21 06:21:00,,0826.2,5.00,0.00,22.1,20.3,00.0,31.0,23.6,08.8,0000.0,0010.20,0007.26,0006.84
2023-01-21 06:22:00,,0826.2,5.00,0.00,22.1,20.7,00.0,31.0,23.7,08.8,0000.0,0010.47,0007.30,0006.88
2023-01-21 06:23:00,,0826.2,5.02,0.00,22.2,21.6,00.0,30.9,24.0,08.8,0000.0,0010.70,0007.30,0006.89
2023-01-21 06:24:00,,0826.2,5.00,0.00,22.3,22.5,00.0,31.0,24.2,08.7,0000.0,0010.79,0007.34,0006.90
2023-01-21 06:25:00,,0826.2,4.99,0.00,22.3,22.4,00.0,31.0,24.3,08.7,0000.0,0011.16,0007.37,0006.91
2023-01-21 06:26:00,,0826.2,4.99,0.00,22.3,21.9,00.0,31.0,24.2,08.7,0000.0,0011.12,0007.35,0006.88
2023-01-21 06:27:00,,0826.2,4.99,0.00,22.3,21.5,00.0,31.0,24.1,08.7,0000.0,0011.09,0007.33,0006.86
2023-01-21 06:28:00,,0826.2,4.98,0.00,22.3,21.1,00.0,31.1,24.0,08.7,0000.0,0011.08,0007.32,0006.84
2023-01-21 06:29:00,,0826.2,4.99,0.00,22.3,20.9,00.0,31.1,23.9,08.8,0000.0,0011.02,0007.32,0006.84
2023-01-21 06:30:00,,0826.2,5.00,0.00,22.2,20.7,00.0,31.1,23.8,08.8,0000.0,0011.21,0007.31,0006.83
2023-01-21 06:31:00,,0826.2,5.00,0.00,22.2,20.6,00.0,31.0,23.8,08.8,0000.0,0011.22,0007.30,0006.85
2023-01-21 06:32:00,,0826.2,5.01,0.00,22.2,20.5,00.0,31.0,23.7,08.8,0000.0,0011.18,0007.31,0006.88
2023-01-21 06:33:00,,0826.2,5.00,0.00,22.1,20.4,00.0,31.0,23.7,08.8,0000.0,0011.56,0007.35,0006.89
2023-01-21 06:34:00,,0826.1,5.01,0.00,22.1,20.3,00.0,31.0,23.6,08.9,0000.0,0011.93,0007.34,0006.86
2023-01-21 06:35:00,,0826.2,5.00,0.00,22.0,20.5,00.0,31.0,23.6,08.9,0000.0,0011.81,0007.28,0006.81
2023-01-21 06:36:00,,0826.2,5.01,0.00,22.1,21.3,00.0,30.9,23.8,08.8,0000.0,0011.42,0007.21,0006.75
2023-01-21 06:37:00,,0826.1,5.01,0.00,22.2,22.3,00.0,30.9,24.1,08.8,0000.0,0012.11,0007.11,0006.67
2023-01-21 06:38:00,,0826.1,4.99,0.00,22.3,22.5,00.0,31.0,24.2,08.7,0000.0,0012.14,0007.03,0006.57
2023-01-21 06:39:00,,0826.1,5.00,0.00,22.3,22.0,00.0,31.0,24.2,08.7,0000.0,0012.03,0006.92,0006.48
2023-01-21 06:40:00,,0826.2,5.02,0.00,22.3,21.6,00.0,31.0,24.1,08.7,0000.0,0011.88,0006.79,0006.37
2023-01-21 06:41:00,,0826.1,5.04,0.00,22.3,21.2,00.0,31.0,24.0,08.7,0000.0,0011.61,0006.71,0006.29
2023-01-21 06:42:00,,0826.2,5.00,0.00,22.2,21.0,00.0,31.0,23.9,08.8,0000.0,0011.51,0006.66,0006.23
2023-01-21 06:43:00,,0826.2,4.97,0.00,22.2,20.8,00.0,31.0,23.8,08.8,0000.0,0011.51,0006.64,0006.20
2023-01-21 06:44:00,,0826.2,4.99,0.00,22.2,20.6,00.0,31.0,23.7,08.8,0000.0,0011.44,0006.58,0006.17
2023-01-21 06:45:00,,0826.1,5.00,0.00,22.1,20.6,00.0,31.0,23.7,08.8,0000.0,0010.85,0006.52,0006.14
2023-01-21 06:46:00,,0826.0,5.01,0.00,22.1,20.5,00.0,31.0,23.6,08.8,0000.0,0010.87,0006.51,0006.13
2023-01-21 06:47:00,,0826.0,4.99,0.00,22.0,20.4,00.0,31.0,23.6,08.9,0000.0,0010.78,0006.45,0006.11
2023-01-21 06:48:00,,0826.0,4.99,0.00,22.0,20.6,00.0,30.9,23.6,08.9,0000.0,0009.93,0006.44,0006.12
2023-01-21 06:49:00,,0826.0,5.00,0.00,22.1,21.6,00.0,30.9,23.9,08.9,0000.0,0009.86,0006.47,0006.14
2023-01-21 06:50:00,,0826.0,5.00,0.00,22.2,22.6,00.0,30.9,24.2,08.8,0000.0,0009.86,0006.50,0006.17
2023-01-21 06:51:00,,0826.0,4.99,0.00,22.3,22.6,00.0,30.9,24.2,08.8,0000.0,0010.03,0006.51,0006.20
2023-01-21 06:52:00,,0826.0,5.00,0.00,22.3,22.1,00.0,31.0,24.2,08.8,0000.0,0009.97,0006.53,0006.22
2023-01-21 06:53:00,,0825.9,5.02,0.00,22.3,21.7,00.0,31.0,24.1,08.8,0000.0,0009.94,0006.53,0006.24
2023-01-21 06:54:00,,0826.0,5.00,0.00,22.3,21.3,00.0,31.0,24.0,08.8,0000.0,0009.90,0006.48,0006.20
2023-01-21 06:55:00,,0825.9,5.00,0.00,22.2,21.1,00.0,31.0,23.9,08.8,0000.0,0009.40,0006.44,0006.17
2023-01-21 06:56:00,,0825.9,5.00,0.00,22.2,20.9,00.0,31.0,23.8,08.8,0000.0,0009.24,0006.47,0006.17
2023-01-21 06:57:00,,0826.0,4.99,0.00,22.2,20.7,00.0,31.0,23.7,08.9,0000.0,0009.24,0006.46,0006.16
2023-01-21 06:58:00,,0825.9,5.01,0.00,22.1,20.6,00.0,31.0,23.7,08.9,0000.0,0009.21,0006.44,0006.14
2023-01-21 06:59:00,,0825.9,4.99,0.00,22.1,20.5,00.0,31.0,23.6,08.9,0000.0,0009.25,0006.40,0006.09
